Theta_e
347 345 345 346 346 345 344 344 344 343 342 343 345 343 343 344 345 344 344 344 341 338 337 337 338 338 339 340 339 339 339 338 337 336 337 337 338 338 339 339 336 332 331 330 330 331 330 330 329 327 327 327 325 324 323 323 324 326 328 329 330 330 330 329 329 329 329 329 330 330 331 331 331 331
346 346 346 346 345 344 346 346 344 344 345 344 344 344 343 343 344 345 346 344 341 340 338 336 338 340 341 340 340 340 340 339 338 338 338 338 339 339 339 339 336 332 332 331 331 330 329 328 327 328 329 328 327 325 324 323 323 324 325 327 328 329 329 329 328 328 328 329 329 330 330 330 330 330
347 346 346 347 346 345 346 346 344 344 346 345 344 344 343 343 343 344 345 344 341 339 338 337 339 341 342 341 340 340 341 340 337 337 339 339 339 339 340 337 333 331 331 330 329 328 327 328 328 330 330 330 328 326 324 323 323 324 325 326 327 328 328 329 329 328 328 328 327 328 327 327 327 327
348 347 347 348 348 347 347 348 345 344 345 346 345 344 343 343 344 344 344 344 343 341 339 338 339 340 341 341 340 340 342 341 337 335 338 341 339 339 339 336 332 331 331 330 328 328 328 329 330 330 331 331 329 327 325 324 324 324 324 325 326 327 328 328 327 326 325 324 323 322 322 322 322 322
349 348 348 349 350 349 349 349 347 344 346 347 345 344 344 343 344 344 344 344 344 342 340 340 339 339 340 342 342 340 340 342 340 337 337 339 340 340 338 336 336 335 334 333 331 329 329 329 329 329 330 331 330 328 327 325 324 324 323 324 325 326 326 325 324 323 321 319 319 318 318 317 318 318
351 349 349 350 351 351 350 349 349 346 346 346 345 344 344 344 344 344 343 343 342 342 342 342 342 340 340 340 341 341 340 341 342 341 339 338 339 340 339 337 336 336 335 335 334 332 330 329 328 329 330 330 331 331 329 327 325 324 323 323 324 324 324 323 322 321 320 318 318 318 317 317 317 318
354 351 351 351 350 350 350 349 349 348 346 346 345 344 344 344 344 343 343 343 342 342 342 342 343 342 341 340 340 341 341 341 341 341 341 340 340 340 340 338 337 336 335 335 335 333 332 331 330 329 329 330 331 331 329 328 326 324 324 323 323 323 323 322 322 320 319 318 318 318 318 318 318 318
356 353 352 351 349 349 350 350 350 348 347 346 346 345 345 345 344 344 344 344 343 342 342 343 343 342 341 341 341 341 341 341 341 340 341 340 340 340 340 340 339 338 336 335 335 335 334 334 331 329 329 330 331 331 329 328 327 326 325 324 323 323 323 322 320 319 318 318 318 318 318 318 318 319
357 354 353 352 350 348 350 350 350 349 348 348 347 346 345 345 345 344 344 345 345 343 342 342 343 342 342 341 341 342 341 341 340 340 340 340 340 340 340 338 337 337 337 336 336 336 335 334 332 330 330 330 330 331 329 328 328 327 325 325 324 324 322 320 319 318 318 318 318 318 318 318 318 319
358 356 354 353 351 348 349 350 350 349 349 348 348 347 346 346 346 345 344 344 345 345 344 342 342 343 343 342 342 342 342 341 341 339 340 341 340 341 340 338 337 335 335 335 336 336 336 335 334 333 332 331 331 330 329 328 328 327 326 325 324 322 320 319 319 318 318 318 318 318 318 318 319 319
358 356 356 354 352 350 348 350 351 351 349 349 349 349 348 346 346 346 345 343 344 346 345 344 342 342 342 342 342 342 342 342 342 340 340 341 341 342 343 343 340 336 334 334 335 335 336 335 334 333 332 332 332 331 330 330 329 327 326 325 324 322 321 320 320 319 318 318 318 318 318 319 319 318
359 357 356 355 353 351 349 348 351 351 350 350 350 349 348 347 347 346 345 345 344 345 346 345 343 342 342 341 340 341 341 342 344 342 340 340 340 340 343 344 342 340 337 336 335 334 335 336 335 334 334 333 332 333 333 331 329 327 326 325 324 323 321 320 319 319 318 318 318 318 319 319 319 318
360 358 357 356 355 353 351 349 350 350 350 350 350 350 350 349 347 347 346 345 345 346 346 345 343 342 342 341 340 341 341 342 344 342 341 341 339 338 338 339 340 340 339 338 336 335 336 336 336 336 335 334 334 333 332 330 329 329 328 326 324 322 320 317 317 318 318 317 317 317 316 316 315 314
360 359 358 356 355 354 352 350 349 349 350 349 350 350 350 349 348 347 347 346 346 346 346 345 343 343 342 341 341 341 341 341 341 340 342 343 341 338 338 337 337 337 338 339 337 336 336 336 336 336 335 333 332 331 330 329 328 327 326 323 321 319 316 312 311 312 313 313 312 312 311 311 311 311
362 361 359 358 356 354 353 351 350 349 348 348 348 350 350 349 348 348 348 347 346 346 346 345 344 344 343 341 340 340 340 340 339 339 342 343 341 338 338 337 336 336 337 339 339 337 335 334 334 334 332 331 330 328 327 327 326 324 322 321 319 316 311 307 307 308 310 311 311 312 312 313 313 314
363 362 360 359 358 357 355 353 351 350 349 347 348 348 349 349 349 348 348 348 347 345 345 345 345 343 342 342 341 340 340 339 338 339 340 341 339 337 337 336 335 335 337 338 337 336 335 333 332 331 330 329 328 326 326 325 324 322 321 320 316 310 306 307 309 311 311 312 313 313 314 314 315 315
364 363 361 360 360 359 356 354 353 352 350 348 347 346 347 348 349 348 348 347 346 346 345 346 346 343 342 342 341 339 339 339 338 339 339 338 337 337 337 336 336 335 336 336 336 334 333 331 329 329 328 327 327 326 325 324 322 320 319 317 311 306 305 307 309 310 310 310 310 310 311 312 313 313
364 363 362 362 361 360 358 355 355 354 352 350 348 347 346 347 348 348 347 346 345 346 346 347 347 344 342 342 342 340 340 340 339 338 338 337 337 337 337 336 336 335 334 334 334 333 330 329 328 327 326 325 325 324 324 322 320 318 317 315 311 307 308 308 308 308 308 307 308 308 308 308 309 310
363 363 363 362 362 361 360 356 355 355 355 352 349 347 347 347 347 347 346 345 344 343 343 345 346 345 343 342 341 341 341 340 340 339 338 337 336 337 336 335 334 334 333 333 332 331 330 328 326 325 324 323 323 323 323 321 318 316 316 315 314 313 312 311 310 309 308 307 308 308 309 310 310 310
364 363 363 363 362 361 361 359 355 354 354 354 351 349 348 347 347 346 345 344 343 342 341 342 343 345 344 342 342 341 340 341 340 338 337 337 336 336 334 334 333 331 331 332 331 329 329 327 324 323 322 322 322 321 320 319 318 316 316 316 315 315 315 314 312 311 311 310 309 309 310 311 312 312
364 364 363 363 362 361 361 360 357 353 354 355 353 351 350 348 347 347 346 344 343 341 340 341 341 341 342 341 340 340 339 340 339 337 336 335 335 334 335 335 333 328 328 330 329 328 327 326 323 322 321 321 320 319 318 318 318 316 315 315 316 316 316 315 314 314 313 312 311 311 311 312 313 313
364 363 362 361 361 361 360 360 358 353 352 355 355 352 352 351 348 348 347 345 343 341 340 340 340 340 340 339 339 339 338 337 336 335 335 333 332 332 334 333 330 327 327 327 327 327 326 323 321 320 320 319 319 318 317 317 317 317 316 316 316 316 316 316 316 315 314 314 313 313 313 314 315 316
363 362 361 359 358 358 358 359 359 356 352 354 356 354 352 352 350 349 349 346 343 342 341 340 339 339 338 338 337 337 336 332 330 332 334 332 331 332 331 330 328 328 327 326 325 326 325 323 321 320 319 318 318 317 316 316 317 317 316 316 316 316 316 316 315 315 315 314 314 313 314 316 316 316
363 361 361 359 356 355 356 358 359 357 354 353 355 355 353 352 351 350 349 346 343 343 342 340 339 339 338 337 336 336 333 329 327 329 332 332 331 331 330 328 326 326 327 326 325 325 324 323 320 319 318 318 317 316 315 316 316 316 315 315 316 316 315 315 315 315 314 314 314 315 315 316 317 317
362 361 360 360 357 354 354 356 358 358 355 353 354 355 354 352 351 350 349 346 345 344 343 341 340 340 339 338 337 336 332 329 328 329 330 330 329 328 328 326 325 324 325 325 323 324 324 322 320 319 317 317 316 316 316 316 315 315 315 316 315 315 315 315 315 315 314 315 315 316 317 317 317 317
361 360 359 360 359 355 353 354 357 358 357 354 353 353 354 352 351 350 349 346 344 343 343 341 340 339 338 337 336 335 332 330 329 330 330 328 327 326 325 325 324 324 325 324 322 322 322 321 320 318 318 316 316 316 316 316 315 315 315 315 315 315 315 315 314 314 315 316 317 318 318 318 317 317
360 359 358 359 359 356 353 354 355 356 356 355 352 352 353 351 350 350 348 345 343 342 342 341 339 339 337 336 335 334 333 331 330 329 328 326 325 325 324 324 324 324 325 324 322 321 320 320 320 319 317 316 316 316 316 316 315 314 314 315 315 314 314 314 314 315 316 317 318 318 317 317 317 317
361 359 359 359 359 358 355 354 354 354 355 355 352 351 352 351 349 348 347 345 342 342 341 340 340 338 337 337 335 333 332 332 330 328 326 325 325 324 323 323 323 323 322 322 322 321 320 320 320 319 317 317 316 316 315 314 314 314 314 314 314 314 313 314 315 316 317 317 317 317 316 316 316 315
360 360 359 358 358 358 356 354 353 353 354 354 352 350 350 350 348 347 346 343 342 341 341 340 340 339 337 336 335 333 332 331 329 326 325 325 325 324 323 324 324 323 322 321 320 320 319 319 319 318 317 316 315 314 314 314 314 314 314 314 313 313 314 314 315 316 317 317 316 316 315 315 314 315
360 359 359 358 358 357 356 354 353 352 353 354 351 349 349 349 347 346 345 343 341 341 341 340 340 338 336 335 334 332 330 329 327 326 325 325 324 324 324 325 325 324 323 322 320 319 318 319 318 317 317 316 315 314 314 313 314 314 313 313 313 313 314 315 316 317 317 316 316 315 314 314 315 315
357 357 358 357 357 356 355 354 353 352 352 351 348 346 347 347 346 345 345 343 341 341 341 340 339 337 335 335 333 330 327 327 327 326 325 325 324 324 325 326 325 324 323 322 321 320 319 318 317 317 316 316 315 314 314 313 313 313 313 313 313 314 314 315 316 317 316 316 316 315 314 315 315 315
355 357 357 355 354 355 353 351 349 348 347 347 346 344 345 346 345 344 343 343 342 341 340 339 338 335 335 335 331 327 327 328 327 326 325 325 325 325 325 325 324 324 322 321 320 320 318 317 316 316 315 315 315 315 315 314 313 313 313 313 314 314 315 315 316 316 316 316 316 315 315 315 315 315
353 353 354 350 348 348 346 344 343 342 342 342 341 341 343 345 345 343 342 342 342 341 340 338 336 336 335 333 329 327 328 329 328 326 325 325 326 326 325 324 324 323 322 321 320 319 318 317 316 315 315 316 316 316 315 314 314 314 314 314 314 314 315 316 316 315 316 316 316 316 316 316 315 315
351 352 350 345 343 343 342 341 341 340 339 338 337 339 341 343 344 342 341 341 341 340 339 337 337 336 334 331 330 329 329 329 327 325 325 326 326 326 325 324 322 322 322 321 320 319 319 317 317 316 316 316 316 316 316 316 316 316 315 315 316 316 316 316 316 315 316 316 316 316 316 315 314 313
348 350 348 344 343 342 340 341 341 340 338 337 337 338 340 342 342 341 340 340 339 339 338 337 336 334 331 330 331 330 328 327 326 326 326 327 327 326 325 324 322 322 322 321 320 319 317 317 317 317 317 317 317 317 316 316 317 318 318 316 315 316 315 315 315 315 315 316 316 316 316 315 314 312
346 349 347 344 343 342 340 341 342 340 339 338 338 339 340 341 341 340 339 340 339 338 337 336 334 331 330 330 330 329 326 325 325 326 327 327 327 326 325 324 323 322 321 321 320 319 317 316 316 316 316 315 315 315 315 316 316 317 317 316 314 314 314 314 314 315 316 316 316 316 315 314 314 313
347 350 348 345 344 342 342 343 342 340 340 339 339 339 340 340 340 339 339 339 338 337 336 334 331 329 329 330 329 327 325 325 325 326 327 327 326 325 324 323 322 322 321 321 320 319 316 315 314 314 313 313 312 312 314 317 316 314 314 315 314 313 313 312 313 315 317 317 316 314 314 313 313 312
346 350 349 347 345 343 342 343 343 341 339 339 339 340 340 339 339 338 338 338 337 336 335 333 330 329 329 328 326 325 325 325 326 326 327 327 326 324 323 322 322 321 320 320 320 318 316 314 314 313 313 313 312 311 313 317 317 314 314 314 313 313 312 313 314 316 316 316 314 313 312 312 312 312
340 347 349 349 346 344 342 343 343 342 340 339 339 340 340 339 338 337 336 335 335 335 334 331 330 328 327 326 325 325 325 326 325 325 327 327 325 323 322 321 321 320 320 320 319 318 315 314 314 313 312 313 313 313 313 314 313 311 310 310 311 311 312 314 315 315 315 314 313 313 312 312 311 311
332 340 347 349 348 345 343 343 343 342 340 339 339 339 339 338 337 336 335 334 334 333 332 329 328 328 326 326 325 325 325 325 325 325 325 325 324 322 321 321 320 320 320 320 318 317 316 314 313 313 313 314 313 312 310 309 309 309 310 311 312 313 314 314 315 315 314 313 313 313 312 311 311 310
331 333 339 345 347 346 344 343 343 342 340 340 339 338 338 336 335 335 334 334 333 332 329 327 326 326 325 325 325 326 325 325 325 324 324 323 323 322 321 320 321 320 320 319 318 316 315 315 314 313 314 313 311 309 309 310 311 312 313 313 314 313 313 313 314 314 314 313 314 313 312 310 310 309
331 332 334 338 342 345 344 343 343 341 340 339 338 336 336 335 334 333 333 332 331 329 327 326 325 325 325 325 325 325 326 326 326 324 324 323 322 321 320 320 320 320 319 318 317 315 314 314 314 313 312 311 310 310 312 313 314 314 314 313 313 313 313 313 313 313 313 313 313 312 310 309 309 308
329 332 333 335 338 341 342 341 341 339 338 337 335 334 334 333 332 332 331 329 328 327 326 326 325 325 325 325 325 325 326 326 326 324 323 322 321 321 321 320 319 318 317 316 315 314 313 313 313 312 311 311 311 313 313 314 313 313 313 313 312 313 313 314 314 314 314 313 312 310 309 309 308 308
330 331 333 334 336 338 339 339 338 336 335 334 333 333 332 331 330 329 328 327 326 325 325 326 325 326 326 326 326 326 327 327 326 324 322 322 321 321 320 319 317 316 315 314 313 313 313 313 312 312 311 312 313 313 313 312 312 312 312 312 312 312 313 314 315 315 315 313 311 310 309 308 306 306
331 332 333 334 335 336 336 335 334 334 333 332 332 331 330 329 328 327 326 325 325 325 325 325 326 326 326 326 326 327 327 325 324 322 322 321 320 319 318 317 316 315 314 313 313 313 312 311 311 312 311 311 311 311 312 312 312 312 311 311 312 313 314 314 314 314 313 311 309 308 307 305 305 305
Wind_Speed
14 15 14 13 11 9 9 9 8 8 8 6 6 7 7 6 4 3 3 4 5 8 9 8 10 10 10 10 9 9 9 11 13 12 11 11 12 14 14 14 15 16 17 17 16 15 14 14 14 13 13 14 14 14 14 14 14 14 14 15 15 16 16 16 16 16 15 15 15 16 16 17 17 18
14 14 14 14 13 10 10 10 9 9 9 9 8 8 8 8 6 5 3 4 5 7 8 8 10 12 11 10 9 8 9 11 12 11 11 11 12 14 14 13 13 14 15 16 15 15 14 13 13 13 13 14 14 14 14 14 14 14 14 14 15 15 15 16 16 16 16 15 15 15 15 16 16 17
15 15 15 15 14 12 11 11 11 10 11 11 10 10 10 9 9 8 5 4 5 7 7 6 7 11 10 9 8 8 9 11 12 10 9 11 12 13 13 13 12 12 14 14 14 13 12 12 13 13 14 14 14 14 14 15 15 15 15 14 15 15 15 15 15 16 16 16 17 17 17 17 18 18
16 16 16 15 15 13 12 12 12 12 12 12 12 11 11 11 11 10 8 6 6 7 7 7 6 8 10 9 8 8 9 11 11 10 9 10 11 12 12 13 12 11 12 12 12 11 11 12 13 14 15 15 15 15 15 15 15 14 14 15 15 15 15 15 15 16 16 17 19 19 20 20 20 20
17 18 18 16 15 15 14 13 13 13 13 13 13 13 12 12 12 12 11 9 7 8 8 8 7 7 9 10 9 9 10 10 11 10 10 10 11 11 11 12 13 12 12 11 11 11 11 12 14 15 16 16 16 16 15 15 14 14 14 14 15 15 16 16 16 17 18 18 19 19 19 19 19 19
19 18 19 19 17 16 15 14 14 13 14 14 14 14 14 13 13 14 13 11 10 10 10 10 9 8 8 9 9 10 11 11 10 10 10 11 11 11 11 11 13 14 13 12 12 12 13 14 15 17 17 17 18 17 16 15 14 13 14 14 16 16 17 18 19 20 20 18 18 17 17 16 16 17
20 19 20 20 19 18 17 17 15 14 14 14 15 15 15 14 14 14 15 13 11 11 10 11 11 11 10 11 10 10 11 11 11 11 11 11 11 12 12 11 11 11 10 11 12 13 15 16 17 18 18 19 19 18 17 15 14 14 14 15 17 17 18 19 19 20 19 18 17 17 17 16 16 16
22 21 21 21 21 20 19 19 18 16 16 15 15 15 16 15 15 14 15 15 13 11 11 11 11 11 11 12 12 11 11 12 12 12 12 12 12 12 11 11 11 11 10 11 12 14 17 18 19 19 19 19 19 19 17 16 15 15 16 17 17 17 18 18 18 18 17 17 18 18 18 18 17 17
23 23 22 22 22 22 21 20 20 19 18 17 16 16 16 16 15 14 14 15 14 13 12 11 11 10 11 11 12 12 12 12 12 13 13 13 12 11 11 11 11 11 11 12 13 14 15 16 16 16 17 18 19 19 18 16 16 16 17 17 17 17 17 16 16 17 17 18 19 19 19 19 18 18
24 24 24 23 23 24 23 22 21 21 20 19 18 18 17 16 16 15 15 15 15 14 13 12 11 11 11 11 12 13 13 12 12 13 13 13 12 11 11 11 11 10 10 11 12 12 12 13 14 15 15 17 18 18 18 17 17 17 17 16 16 16 15 14 14 16 17 18 19 20 20 20 19 19
25 25 24 24 24 25 25 24 23 22 22 21 20 20 18 17 16 16 15 15 15 14 14 13 12 12 12 13 13 13 13 12 12 11 11 12 11 11 10 11 11 10 9 10 11 11 11 13 15 16 16 16 17 17 17 16 15 14 14 14 14 14 13 14 16 17 18 19 19 20 20 21 21 20
26 25 25 25 25 26 27 26 25 24 23 22 22 21 20 18 18 17 16 15 15 15 14 13 13 13 13 14 14 13 13 13 12 12 11 11 11 10 10 10 10 10 9 9 10 10 10 12 14 15 14 14 14 14 14 14 14 13 12 12 13 12 13 16 18 18 18 18 19 20 20 21 22 23
27 26 25 25 26 27 28 29 27 25 24 23 23 22 22 20 19 18 16 16 16 15 14 14 14 14 14 15 15 14 14 14 13 12 11 11 10 10 10 10 10 9 9 9 9 8 8 10 11 10 11 11 11 13 15 17 16 13 12 12 12 13 16 18 18 18 18 18 20 22 23 24 24 25
27 27 26 25 26 28 29 30 30 29 27 26 24 23 23 22 21 19 18 17 16 16 15 15 15 15 15 16 16 16 16 15 14 12 12 11 10 9 9 9 9 9 9 9 9 8 8 9 9 9 10 11 11 13 13 12 11 9 9 10 13 18 21 21 20 19 19 20 20 21 22 22 21 20
27 27 26 25 26 28 30 31 32 32 31 30 28 25 23 24 23 21 20 19 18 17 16 16 16 16 16 16 17 17 17 17 15 13 12 11 10 9 9 8 8 8 8 8 8 9 8 9 10 11 12 11 12 12 10 8 8 10 12 15 19 21 22 19 17 16 16 16 16 16 16 17 17 17
26 26 26 25 25 27 30 32 33 34 33 32 32 30 26 25 26 24 22 20 19 18 18 17 17 17 17 17 17 18 17 16 14 12 12 12 11 10 9 8 6 6 6 7 8 9 8 8 10 12 11 11 11 10 10 10 13 15 17 18 19 18 16 14 13 13 13 14 14 15 15 16 17 18
27 26 25 25 25 25 29 32 32 33 36 35 34 33 31 28 28 28 26 23 21 20 19 18 18 19 18 17 17 17 16 14 12 12 12 13 13 11 9 9 7 5 6 6 7 8 8 8 10 10 10 9 9 9 12 14 15 15 16 16 15 14 12 12 13 14 15 15 16 16 17 17 18 18
28 28 27 26 26 24 28 32 31 30 33 36 36 36 35 32 30 30 30 28 26 24 21 19 18 20 21 18 16 15 14 12 12 12 13 13 13 11 9 8 7 8 10 10 8 8 7 6 8 9 9 8 8 10 12 13 12 13 14 15 14 13 12 12 13 14 16 17 17 17 18 18 18 18
30 30 29 27 27 26 28 33 34 30 30 32 35 36 35 32 28 29 31 30 28 27 25 21 18 18 19 20 18 15 13 13 13 12 12 11 9 9 8 8 10 14 16 14 9 6 6 6 7 8 8 9 9 10 11 12 13 14 14 13 14 13 13 12 13 14 16 16 17 17 17 16 16 16
30 30 31 30 29 29 29 33 38 35 30 28 30 31 31 30 27 27 29 31 30 27 25 23 21 20 19 20 21 19 15 14 13 11 10 9 8 8 8 9 12 14 12 14 12 8 7 6 7 8 8 9 10 10 12 14 14 12 11 13 15 14 13 13 14 16 17 16 16 16 15 15 15 16
31 32 33 32 31 30 30 33 37 38 34 28 27 29 28 27 27 25 26 29 31 29 26 24 23 25 24 20 20 21 19 16 14 12 11 11 10 10 11 11 11 10 8 11 12 8 7 6 6 8 9 9 11 12 12 11 10 9 11 14 15 13 13 14 16 17 18 16 14 14 15 15 14 15
33 33 35 36 34 32 33 34 36 39 38 31 27 28 27 25 26 25 23 25 30 30 28 27 25 26 25 20 18 21 21 19 16 13 12 12 11 12 13 11 9 8 8 9 10 8 6 6 5 7 9 10 11 11 9 7 8 10 12 13 13 13 13 14 16 18 18 15 14 14 15 14 14 14
32 34 37 40 40 37 35 36 38 40 40 35 30 29 27 25 26 26 23 25 31 31 29 27 26 25 25 21 19 20 20 19 18 16 13 12 12 12 12 10 8 7 7 8 11 8 6 6 5 6 7 8 8 8 8 8 8 9 10 11 12 14 14 15 17 18 18 15 14 15 15 14 14 15
31 33 37 42 45 43 39 38 40 41 43 40 34 30 30 29 28 27 24 24 29 30 28 26 23 21 22 20 18 20 20 20 20 18 15 13 12 12 12 11 11 9 5 10 11 7 6 6 6 7 7 7 7 8 9 9 8 9 10 10 11 12 14 16 17 18 17 16 15 16 15 12 12 14
31 33 37 40 44 47 44 42 41 42 45 44 37 33 34 33 30 28 27 26 27 25 24 24 22 20 19 18 17 18 19 20 20 18 16 15 14 14 13 12 12 9 6 11 10 6 5 6 8 8 8 8 9 9 9 9 9 10 9 9 10 12 13 15 16 16 16 15 15 15 13 11 13 16
33 33 37 38 39 45 48 46 44 43 44 44 40 35 35 34 32 31 28 27 28 24 22 24 25 23 22 20 19 19 18 19 19 18 17 16 16 15 14 12 11 8 6 8 7 5 5 7 8 8 8 7 8 9 10 9 9 8 7 9 11 12 13 14 15 15 14 14 14 14 14 15 18 19
34 34 37 37 36 42 49 50 47 43 43 45 42 37 34 34 35 33 29 28 28 26 24 25 26 25 24 23 23 23 20 18 19 18 16 16 17 16 13 9 8 8 5 4 4 4 5 8 9 9 8 7 8 9 9 9 8 8 9 11 11 12 13 14 14 14 14 13 13 13 15 17 18 18
33 33 35 36 35 38 45 51 51 46 44 45 44 39 35 35 35 33 29 29 30 28 25 27 26 25 27 25 24 25 22 18 19 19 16 16 16 15 12 8 8 8 7 5 5 5 7 9 10 10 9 7 8 9 9 9 9 9 10 12 12 13 14 13 14 14 13 13 13 14 15 15 16 16
32 30 30 32 34 36 41 48 52 49 46 45 45 41 38 37 39 36 30 30 33 29 26 26 26 25 27 26 23 24 23 19 20 21 18 16 16 14 12 9 8 9 8 7 6 6 9 11 12 10 9 8 9 9 9 10 10 10 10 12 14 15 14 14 14 13 12 13 14 14 15 16 17 17
35 32 30 30 32 35 40 45 50 51 48 47 46 45 42 41 42 39 33 32 34 31 27 27 26 24 26 25 23 23 23 21 21 22 20 18 17 15 14 11 10 10 10 9 8 8 10 13 13 11 10 9 10 10 10 10 11 11 11 12 14 15 14 14 13 12 12 13 13 14 16 17 18 17
41 37 34 32 31 33 37 43 47 49 49 49 48 47 46 44 42 41 37 34 34 32 29 29 28 25 25 25 22 22 23 22 21 21 20 19 18 16 15 14 12 12 12 10 10 10 11 13 13 12 11 11 10 10 10 10 11 12 12 12 14 15 14 14 13 13 12 11 13 16 18 18 17 17
44 40 38 34 30 32 38 42 44 44 45 48 49 49 49 45 41 41 39 35 34 34 32 30 28 27 27 25 24 25 25 21 21 22 21 20 19 17 17 16 13 12 11 11 11 12 13 14 14 13 13 13 12 11 10 10 11 11 12 13 14 15 15 14 14 13 11 12 15 18 18 18 17 17
43 39 37 32 27 33 40 40 35 33 37 44 47 49 49 44 39 40 40 36 34 35 33 31 29 27 26 24 23 26 25 23 23 24 24 22 20 19 18 16 14 12 11 10 10 12 15 16 16 15 15 14 14 13 11 11 11 11 11 12 13 14 14 13 13 13 13 14 16 18 18 18 17 16
42 37 34 29 26 30 33 32 26 22 27 36 42 44 45 42 39 41 41 38 36 36 35 33 31 28 27 25 23 24 25 24 23 24 25 24 21 19 17 15 14 12 11 10 9 10 13 15 15 15 15 16 17 18 17 16 13 10 10 10 12 13 14 13 14 14 14 14 16 18 19 18 17 17
39 34 30 27 27 28 30 32 31 28 28 34 39 39 39 39 39 40 40 39 37 38 37 34 31 31 30 28 25 24 25 25 24 23 24 23 20 18 16 15 14 14 13 12 11 11 12 14 14 15 16 17 17 19 21 21 17 12 9 10 11 12 13 14 14 15 15 15 16 18 18 19 18 17
37 35 33 31 32 35 36 37 40 39 37 40 41 40 38 38 39 40 42 41 39 40 38 34 31 32 31 28 25 25 26 26 24 22 23 22 19 18 18 16 15 14 12 11 11 11 12 14 14 15 14 13 11 10 12 16 17 14 9 8 10 11 12 14 15 15 16 16 16 17 18 19 20 19
39 37 37 36 38 42 45 45 45 44 43 44 45 45 44 43 41 40 42 41 38 39 39 35 33 34 32 28 26 25 25 27 24 22 23 23 21 19 19 18 16 15 12 11 11 12 12 14 15 15 13 9 6 5 4 7 14 16 11 8 9 11 12 15 16 16 15 15 16 17 18 20 22 21
40 37 37 39 42 47 51 49 46 45 45 45 47 47 47 47 44 42 42 41 38 38 37 33 33 35 33 28 27 25 25 26 24 20 21 23 22 20 19 18 16 14 13 12 12 13 13 14 15 16 14 10 6 5 2 4 9 13 13 11 11 13 13 14 15 15 15 15 16 18 19 21 23 24
43 40 37 39 42 47 50 50 49 48 48 48 48 47 46 46 45 45 45 43 40 39 37 33 34 36 33 29 28 27 26 26 25 22 21 23 22 21 20 18 15 13 12 12 13 14 14 15 16 16 16 13 9 5 3 3 5 8 10 12 16 17 16 15 14 15 16 16 17 19 21 22 23 23
42 42 40 39 40 44 48 49 49 50 52 52 51 50 47 44 43 43 43 42 39 39 36 33 34 36 34 31 30 28 25 26 26 25 23 22 22 22 21 18 15 13 12 12 13 14 15 17 18 18 17 13 8 5 5 7 9 11 12 14 15 15 16 16 15 15 16 16 17 20 21 22 22 21
34 38 41 41 40 41 46 49 48 48 50 51 52 52 49 47 46 46 45 42 40 38 35 34 36 36 34 32 31 27 24 24 24 23 21 22 23 23 20 17 14 13 12 12 13 14 15 16 18 19 17 11 7 7 8 8 7 9 10 11 11 12 15 16 17 16 16 16 17 18 20 21 21 21
31 35 39 42 41 40 42 46 48 46 45 44 45 47 47 47 48 50 47 43 40 37 34 33 36 35 32 31 31 27 23 23 23 23 23 23 22 19 17 15 15 14 13 12 13 14 13 12 12 14 15 13 11 11 9 7 7 8 9 10 11 13 13 13 15 17 18 17 15 17 19 19 18 17
31 31 33 37 40 41 41 41 41 41 41 43 43 42 42 42 44 45 44 41 39 37 33 32 35 34 30 30 30 28 24 22 23 23 22 21 19 16 15 16 16 15 13 13 13 13 13 11 10 10 12 14 15 13 11 9 8 9 9 10 10 11 11 13 16 18 18 16 16 18 19 17 15 15
30 32 33 33 34 35 34 33 33 34 38 43 45 43 42 43 43 42 41 40 37 34 31 31 32 31 29 28 28 26 24 22 21 19 18 18 17 16 16 16 16 15 14 13 13 14 13 12 11 13 15 16 15 14 12 10 9 9 9 10 10 12 13 14 14 13 12 14 17 18 17 15 15 17
15 15 20 26 29 28 23 22 26 32 36 41 44 43 43 45 45 43 41 40 37 33 31 30 30 29 29 28 27 25 23 21 19 18 18 17 17 17 16 15 15 16 15 14 13 13 13 13 14 15 15 15 14 13 11 10 9 9 10 11 12 12 12 11 11 11 12 15 16 16 14 13 14 16
Wind_Direction
216 212 209 214 220 210 204 209 202 200 205 201 194 197 203 211 223 215 195 211 213 206 216 208 186 190 200 204 218 222 224 240 244 238 235 235 238 245 248 250 248 243 242 246 250 258 269 275 279 279 281 285 285 286 288 290 291 291 290 290 288 288 289 290 292 293 294 292 290 288 287 287 288 289
214 214 210 208 214 213 205 206 205 199 198 202 201 200 205 209 219 230 212 221 223 203 220 229 187 182 195 201 213 221 223 235 237 232 235 236 235 238 240 246 249 242 240 245 250 260 267 270 273 275 279 282 282 283 285 289 292 292 291 289 288 288 288 288 290 292 293 293 291 289 286 285 285 286
212 212 211 207 209 210 205 205 207 203 197 201 206 204 208 208 213 228 229 221 221 207 218 230 183 175 192 204 215 218 219 232 235 229 231 237 239 238 239 245 247 242 243 247 252 259 262 265 269 273 277 279 279 281 283 287 291 291 291 291 290 291 289 288 290 291 294 295 294 292 289 288 287 287
211 211 211 209 206 206 205 206 207 206 201 202 207 206 207 210 210 216 223 230 226 214 219 226 204 192 197 200 211 219 218 226 233 231 228 236 243 241 242 249 249 246 247 251 255 255 256 263 268 272 275 276 277 278 279 284 287 289 292 294 294 294 293 292 293 294 295 295 295 294 293 293 292 290
208 208 209 209 207 204 204 206 207 207 203 202 207 208 206 209 210 209 214 226 230 225 223 225 230 227 209 199 207 219 219 221 228 232 228 232 239 239 241 247 247 247 252 256 258 258 261 266 269 272 273 274 275 276 276 279 283 288 293 295 295 293 293 295 297 299 299 298 297 297 297 297 296 293
209 206 206 207 207 205 206 209 210 209 205 204 206 208 208 208 209 207 209 217 226 230 223 218 228 236 222 215 215 216 222 225 225 224 223 228 234 237 242 247 245 244 250 255 256 259 266 270 272 273 273 273 273 274 275 277 283 289 293 295 295 294 294 296 299 300 301 301 301 302 302 300 298 298
209 207 205 206 205 205 208 210 212 212 210 209 209 209 208 210 210 207 207 212 220 229 226 219 223 226 221 222 223 223 227 230 227 224 226 229 232 236 241 247 251 251 251 251 253 261 270 275 275 274 272 271 271 271 272 276 282 288 293 296 294 292 293 295 297 297 298 300 303 303 303 302 300 300
209 207 205 205 205 204 206 209 211 213 212 211 211 211 209 210 213 209 207 210 217 227 232 227 224 225 223 220 222 227 229 229 231 232 231 232 233 236 238 245 254 257 255 253 256 265 273 276 276 274 271 269 268 268 270 274 280 286 293 295 292 291 292 292 293 293 295 298 302 303 302 302 301 299
208 208 207 205 204 204 205 207 209 210 211 211 212 213 211 209 211 211 209 210 214 222 231 232 227 227 228 225 222 226 227 228 232 234 235 236 237 236 240 248 255 254 254 256 259 266 273 276 275 272 270 269 267 266 267 272 278 284 289 291 290 291 290 288 289 291 294 296 298 299 299 298 298 297
208 209 208 207 205 205 205 207 208 207 208 211 212 213 212 210 209 211 212 211 214 219 225 231 230 227 229 229 227 226 226 228 232 235 234 233 233 234 239 249 256 255 254 252 254 262 270 272 274 275 273 269 266 265 269 276 280 284 288 288 289 289 286 285 288 291 293 293 292 293 295 295 295 294
211 210 210 209 207 206 207 207 207 206 206 209 211 212 211 210 209 210 211 212 214 218 222 225 229 232 234 236 236 234 230 230 234 236 234 230 228 227 231 245 255 259 262 261 259 263 265 265 272 279 277 271 269 271 274 278 281 285 287 286 285 284 284 288 292 292 290 289 288 287 288 289 291 291
217 214 211 212 211 208 208 209 207 206 205 206 209 210 210 210 210 210 210 211 213 218 221 223 229 236 238 239 241 238 232 230 229 229 232 235 232 225 229 242 254 263 267 269 274 275 267 266 272 274 271 271 273 273 274 279 285 289 286 280 277 279 285 291 292 290 286 284 285 285 285 286 287 288
219 217 213 215 215 212 210 210 209 208 206 206 207 207 207 208 209 211 210 210 212 215 218 223 233 238 237 237 240 237 232 231 231 231 232 234 232 232 239 244 249 259 262 265 275 276 267 271 275 267 262 270 275 275 277 281 283 279 268 266 273 285 295 297 293 288 284 283 284 285 286 287 286 287
219 219 216 217 218 216 214 213 212 211 209 209 208 207 206 206 207 208 210 210 211 212 215 222 231 236 237 236 236 237 237 237 239 238 234 233 234 236 245 251 251 252 255 260 270 272 270 277 280 273 272 277 278 277 277 269 259 258 265 278 295 303 303 301 295 290 287 287 288 288 287 289 290 291
218 218 217 218 218 218 216 216 216 216 213 212 212 210 209 208 207 207 208 210 210 211 216 222 228 235 238 233 232 234 233 230 232 233 229 233 237 233 240 255 257 245 240 248 264 272 273 271 272 277 279 281 281 276 266 254 263 287 298 300 303 304 302 301 299 296 295 294 294 294 292 292 294 296
216 216 216 217 217 216 216 215 217 220 218 216 215 214 213 212 211 210 209 210 210 210 216 223 228 234 237 234 232 233 232 228 223 219 221 230 236 235 239 250 257 249 238 243 263 273 274 268 271 277 277 278 280 273 266 275 285 291 293 296 301 302 301 303 305 303 302 301 297 295 293 292 293 294
215 214 214 215 215 214 214 212 213 218 220 219 218 217 216 215 215 215 213 213 212 213 219 228 230 231 234 237 234 233 237 240 225 209 213 228 234 236 237 241 247 245 227 227 251 268 274 276 276 278 278 276 276 271 270 277 280 282 289 298 304 306 304 302 303 301 298 297 295 293 291 290 290 291
213 212 211 211 211 212 212 209 208 211 215 217 218 217 218 218 217 218 218 216 215 215 221 231 232 227 230 236 237 233 233 237 230 218 218 228 233 233 236 240 244 243 229 219 230 256 266 274 274 275 280 280 277 273 270 272 280 288 295 299 305 310 310 306 305 302 296 292 291 292 292 291 290 289
212 212 210 209 209 208 207 208 208 206 205 209 212 213 215 217 217 218 219 218 217 218 222 230 233 228 227 230 233 232 225 223 223 220 221 226 227 230 239 243 245 248 234 210 203 239 256 261 271 275 282 286 284 282 281 285 292 292 290 295 305 311 312 312 313 312 308 300 294 292 293 293 293 292
212 211 209 208 208 207 206 209 211 209 202 199 202 206 210 213 216 217 218 217 216 217 221 227 229 228 229 227 224 221 217 213 212 210 210 211 211 223 238 241 245 249 228 199 201 237 248 246 267 278 283 288 286 285 287 285 282 280 285 298 306 308 308 309 309 312 314 310 300 295 294 293 294 294
214 213 211 208 207 207 208 211 212 210 203 194 195 200 203 207 212 214 216 217 216 216 219 222 224 227 231 231 222 215 208 201 199 200 205 207 210 217 224 234 247 256 233 204 204 216 227 234 266 280 284 287 283 281 282 277 268 271 289 300 302 301 302 303 303 307 310 308 303 301 302 300 298 296
218 218 216 213 209 207 209 213 213 209 202 194 192 196 198 202 208 208 206 207 210 213 217 220 222 224 227 229 220 211 206 202 199 202 209 216 225 232 235 240 249 256 249 219 190 180 211 245 266 277 282 282 277 276 280 277 273 280 291 299 302 300 296 293 297 302 302 300 298 300 304 305 301 297
220 222 222 218 214 211 210 212 213 209 204 198 195 196 197 200 204 205 198 194 198 203 208 213 215 215 216 216 211 206 207 209 210 210 215 223 232 243 251 249 240 242 237 199 178 183 226 250 258 269 279 282 278 278 281 278 277 281 288 296 299 298 295 292 293 297 296 294 293 294 298 301 295 289
221 223 226 223 217 213 211 211 212 210 207 204 199 196 197 200 203 203 197 191 194 196 198 202 204 203 202 202 201 204 209 214 214 212 217 223 225 234 244 240 236 242 208 169 172 193 232 248 264 271 271 277 279 281 281 280 283 288 288 289 290 293 296 295 294 295 294 293 291 289 290 292 288 282
224 223 227 226 219 213 211 212 211 210 210 208 204 199 199 201 200 198 194 191 191 190 192 199 199 194 193 196 199 203 207 209 209 210 214 220 222 226 231 232 236 233 175 159 173 187 213 248 270 268 260 265 272 278 284 286 288 288 285 286 288 290 292 291 289 291 293 294 293 289 286 285 285 284
226 225 228 229 222 214 212 212 212 212 211 210 207 205 204 201 198 196 191 186 186 187 191 198 199 196 196 199 204 205 202 201 204 207 212 217 220 223 225 230 234 221 161 154 178 186 208 246 259 255 253 261 270 279 287 286 286 293 295 293 291 288 287 287 287 290 292 293 293 292 289 287 288 288
225 224 227 230 226 217 212 211 212 212 211 210 209 207 203 199 197 197 192 183 182 186 190 195 197 197 197 199 206 209 204 198 200 203 209 213 215 218 219 218 222 216 183 164 186 200 220 239 244 243 246 255 266 276 282 284 291 304 303 299 296 292 290 288 287 288 289 289 292 294 293 293 294 295
228 225 226 229 228 220 213 212 213 212 210 209 208 205 201 197 194 193 190 185 182 184 189 194 193 193 195 198 204 206 204 199 196 197 202 206 207 210 212 204 203 212 215 212 213 217 226 234 238 237 234 241 257 268 278 287 296 303 302 301 300 296 293 290 285 284 287 291 295 298 297 299 301 301
234 234 231 230 229 224 215 212 212 211 211 211 208 203 199 196 192 190 188 184 183 184 190 194 191 190 195 200 203 203 202 197 189 188 193 199 198 200 204 204 207 216 223 226 225 226 230 234 237 236 230 234 248 260 272 283 289 294 298 298 296 293 291 288 284 284 288 292 296 300 302 301 300 299
236 240 242 239 232 223 215 210 210 210 211 211 207 204 200 194 190 190 188 182 181 186 191 193 191 189 195 203 205 197 191 184 180 182 187 191 192 194 195 197 208 219 225 230 230 229 230 233 234 234 231 234 244 255 267 277 283 287 290 289 289 289 288 285 285 286 289 292 296 300 302 301 298 296
234 238 244 247 239 224 214 210 210 210 210 207 203 201 199 194 190 190 189 182 181 185 189 191 190 189 194 201 198 185 179 176 176 182 188 190 193 195 193 196 209 223 228 231 229 226 228 231 231 229 230 236 244 250 259 268 275 280 283 283 283 283 284 286 287 287 290 296 301 301 301 299 298 297
233 233 237 242 235 216 206 203 203 205 205 203 201 199 198 195 192 190 189 185 184 185 187 188 188 188 193 196 185 175 175 175 176 183 191 196 199 198 194 197 208 220 228 229 225 223 226 229 230 231 232 236 241 247 255 262 265 270 276 279 277 278 281 286 289 291 297 301 300 299 300 298 297 297
229 227 229 230 218 201 195 194 195 198 199 199 200 200 198 196 192 188 187 185 184 183 183 183 184 186 189 188 176 170 173 175 177 184 192 198 204 205 203 204 207 214 225 231 227 221 221 224 231 234 233 235 237 240 245 251 255 260 267 273 276 278 282 287 290 295 300 300 297 297 297 297 298 298
224 221 220 219 211 200 195 193 193 194 194 196 199 200 200 198 192 187 187 186 183 181 180 181 182 181 181 180 173 171 176 178 179 186 193 198 205 209 211 210 209 214 225 233 233 225 216 217 226 232 233 237 239 237 237 238 239 245 258 269 275 279 284 289 292 295 296 295 295 296 296 297 299 300
223 220 215 212 212 208 204 202 200 197 195 197 198 199 202 201 194 188 187 185 182 180 180 182 182 178 176 177 175 176 179 180 182 187 193 198 204 208 211 212 210 214 221 222 224 227 218 215 223 231 234 237 237 238 240 238 230 228 244 263 273 281 287 291 294 295 295 294 293 294 294 297 300 301
222 221 215 209 206 205 206 207 202 197 197 199 197 196 200 201 197 191 187 184 181 179 179 180 177 172 171 173 177 179 179 179 183 187 189 195 205 210 212 215 214 216 222 218 216 222 224 221 226 235 240 241 240 242 245 235 222 218 229 259 276 282 288 293 294 293 291 291 293 295 296 297 299 301
225 222 217 210 204 203 207 209 204 199 198 197 195 195 197 197 195 192 188 183 179 177 178 176 171 167 167 170 176 179 177 177 183 187 185 193 208 215 214 217 217 215 217 218 218 223 226 225 231 239 245 248 249 258 250 201 198 203 213 248 278 284 288 291 291 289 289 293 296 298 299 299 299 300
231 226 220 214 208 206 209 210 205 200 198 197 195 195 194 192 189 187 185 182 178 176 177 174 166 165 168 170 173 176 175 177 186 191 186 192 210 220 218 218 219 212 207 212 221 225 225 228 233 238 242 246 252 262 256 175 188 202 212 234 264 277 282 285 286 287 293 299 301 302 302 300 298 299
237 234 229 222 215 212 212 210 204 199 197 195 193 193 192 188 183 180 180 180 177 175 177 174 165 164 168 169 171 175 176 177 186 195 194 196 208 218 217 216 217 213 206 207 215 219 221 225 232 237 240 244 251 261 270 265 258 252 248 256 265 268 267 270 278 287 294 298 301 304 304 301 300 302
241 240 239 235 226 218 215 213 207 200 197 194 191 189 187 183 176 174 175 175 171 170 172 170 164 164 167 168 168 173 176 178 188 200 204 205 211 217 216 214 213 211 209 209 213 217 221 224 229 234 236 239 247 265 271 270 272 272 271 272 272 267 262 261 267 278 289 296 300 303 304 305 308 309
250 245 243 242 237 228 220 215 210 203 198 193 188 184 181 176 172 170 171 170 167 165 166 165 162 162 165 165 167 171 176 183 196 206 208 211 218 218 212 209 208 210 213 213 215 222 228 227 226 226 227 232 249 262 258 256 259 263 270 277 281 281 276 268 261 265 278 289 295 299 303 307 308 308
266 255 248 245 244 238 228 219 212 205 197 188 181 178 175 171 168 166 164 163 162 161 162 163 161 159 159 165 171 175 178 187 203 210 208 211 217 213 202 202 207 211 214 215 218 226 228 218 210 215 223 232 243 246 243 244 253 264 274 281 284 286 284 274 266 269 276 281 288 295 300 304 306 308
272 265 257 251 249 247 240 228 214 201 188 177 171 170 168 163 159 158 156 154 155 157 158 158 158 157 158 165 174 179 184 195 210 214 209 209 213 208 201 203 208 211 214 217 223 228 221 204 198 213 228 232 233 235 241 248 254 263 272 278 286 294 294 285 278 276 274 276 285 292 293 292 292 297
278 269 262 257 255 254 248 233 211 191 176 166 161 159 158 155 152 152 149 146 149 153 153 152 155 159 164 168 172 179 191 204 212 210 204 205 209 209 206 202 201 209 219 220 219 222 220 215 216 223 228 231 231 233 241 247 253 263 273 280 287 290 288 285 283 279 275 279 289 296 293 285 283 288
347 311 280 263 250 240 226 202 179 166 158 153 151 151 152 150 147 145 144 144 146 150 151 152 156 162 167 172 177 184 195 203 203 198 200 204 206 208 208 202 197 204 214 216 214 216 220 223 226 225 228 235 238 238 241 247 253 261 270 276 278 277 280 287 291 289 288 292 299 303 300 296 297 299